Regional Weather Roundup
Issued by NWS

Home | Current Version | Previous Version | Graphics & Text | Print | Product List | Glossary On
Versions: 1 2 3 4 5 6 7 8 9 10 11 12 13 14 15 16 17 18 19 20 21 22 23 24 25 26 27 28 29 30 31 32 33 34 35 36 37 38 39 40 41 42 43 44 45 46 47 48 49 50
000
ASUS43 KLMK 301402
RWRKY
KENTUCKY REGIONAL WEATHER ROUNDUP
NATIONAL WEATHER SERVICE LOUISVILLE KY
1000 AM EDT SUN AUG 30 2015

NOTE "FAIR" INDICATES FEW OR NO CLOUDS BELOW 12,000 FEET
WITH NO SIGNIFICANT WEATHER AND/OR OBSTRUCTIONS TO VISIBILITY.

KYZ001>023-026-027-061>063-070>075-301500-
WESTERN AND SOUTH CENTRAL KENTUCKY

CITY           SKY/WX    TMP DP  RH WIND       PRES   REMARKS
PADUCAH        CLOUDY    73  69  87 VRB3      30.08R
HENDERSON      CLOUDY    73  66  78 S3        30.07S
OWENSBORO      CLOUDY    74  70  87 S9        30.10S
HOPKINSVILLE   MOSUNNY   75  67  74 VRB3      30.11S
BOWLING GREEN  CLOUDY    78  67  68 SW7       30.13S
GLASGOW        NOT AVBL
$$

KYZ024-025-028>034-038-045-046-053-301500-
NORTH CENTRAL KENTUCKY

CITY           SKY/WX    TMP DP  RH WIND       PRES   REMARKS
LOUISVILLE/SDF PTSUNNY   76  65  68 SW10      30.11R
LOUISVILLE/LOU PTSUNNY   75  67  76 VRB5      30.12S
FORT KNOX      CLOUDY    74  67  78 SW7       30.11S
$$

KYZ035>037-039>044-047>052-055>060-089>105-301500-
NORTHEAST KENTUCKY

CITY           SKY/WX    TMP DP  RH WIND       PRES   REMARKS
LEXINGTON      MOSUNNY   75  67  76 SW9       30.15S
COVINGTON      PTSUNNY   73  68  84 S10       30.12S
FRANKFORT      RAIN      72  68  87 SW7       30.13S FOG
$$

KYZ054-064>069-076>088-106>120-301500-
SOUTHEAST KENTUCKY

CITY           SKY/WX    TMP DP  RH WIND       PRES   REMARKS
JACKSON        PTSUNNY   70  63  78 CALM      30.18F
LONDON         CLOUDY    70  64  81 VRB3      30.18S
SOMERSET       NOT AVBL
MIDDLESBORO    NOT AVBL
MONTICELLO     CLOUDY    73  68  84 CALM      30.19S
$$




USA.gov is the U.S. government's official web portal to all federal, state and local government web resources and services.